EW7244 Weather Reports


time (UTC)temp
C
wind
direction
speed
KPH
gust
KPH
rain 1hr
cm
rain 24hr
cm
rain mn
cm
humidity
%
barometer
mb
20260903121549 28 61 0.0 0.0 0.00 0.00 0.00 50 1013.9
20260903120059 27 121 0.0 0.0 0.00 0.00 0.00 50 1014.2
20260903114613 27 138 0.0 0.0 0.00 0.00 0.00 51 1014.3
20260903113046 27 83 0.0 0.0 0.00 0.00 0.00 53 1014.4
20260903111548 26 105 0.0 0.0 0.00 0.00 0.00 53 1014.7
20260903110041 26 104 0.0 0.0 0.00 0.00 0.00 55 1014.9
20260903104530 26 119 0.0 0.0 0.00 0.00 0.00 59 1015.1
20260903103012 25 112 0.0 0.0 0.00 0.00 0.00 58 1015.1
20260903101501 25 146 0.0 0.0 0.00 0.00 0.00 61 1015.2
20260903100059 24 151 0.0 0.0 0.00 0.00 0.00 63 1015.6
20260903094556 23 142 0.0 0.0 0.00 0.00 0.00 66 1015.8
20260903093103 22 91 0.0 0.0 0.00 0.00 0.00 67 1016.2
20260903091555 22 151 0.0 0.0 0.00 0.00 0.00 69 1016.3
20260903090047 22 146 0.0 0.0 0.00 0.00 0.00 69 1016.5
20260903084542 21 10 0.0 0.0 0.00 0.00 0.00 72 1016.4
20260903083057 21 141 0.0 0.0 0.00 0.00 0.00 71 1016.5
20260903081547 21 153 0.0 0.0 0.00 0.00 0.00 74 1016.5
20260903080041 20 86 0.0 0.0 0.00 0.00 0.00 76 1016.5
20260903074544 20 92 0.0 0.0 0.00 0.00 0.00 77 1016.5
20260903073050 20 140 0.0 0.0 0.00 0.00 0.00 78 1016.6
20260903071603 19 123 0.0 0.0 0.00 0.00 0.00 78 1016.6
20260903070057 19 132 0.0 0.0 0.00 0.00 0.00 79 1016.6
20260903064605 19 99 0.0 0.0 0.00 0.00 0.00 80 1016.5
20260903063049 18 281 0.0 0.0 0.00 0.00 0.00 80 1016.5
20260903061543 18 275 0.0 0.0 0.00 0.00 0.00 81 1016.5
20260903060022 18 276 0.0 0.0 0.00 0.00 0.00 82 1016.4
20260903054513 17 279 0.0 0.0 0.00 0.00 0.00 85 1016.2
20260903053052 17 279 0.0 0.0 0.00 0.00 0.00 87 1016.0
20260903051545 16 279 0.0 0.0 0.00 0.00 0.00 88 1016.0
20260903050110 15 279 0.0 0.0 0.00 0.00 0.00 88 1015.8
20260903044558 16 279 0.0 0.0 0.00 0.00 0.00 87 1015.6
20260903043056 16 279 0.0 0.0 0.00 0.00 0.00 88 1015.6
20260903041517 16 279 0.0 0.0 0.00 0.00 0.00 86 1015.5
20260903040052 16 279 0.0 0.0 0.00 0.00 0.00 86 1015.4
20260903034540 16 279 0.0 0.0 0.00 0.00 0.00 87 1015.3
20260903033055 16 279 0.0 0.0 0.00 0.00 0.00 87 1015.4
20260903031550 16 279 0.0 0.0 0.00 0.00 0.00 88 1015.4
20260903030043 16 279 0.0 0.0 0.00 0.00 0.00 86 1015.4
20260903024538 16 279 0.0 0.0 0.00 0.00 0.00 86 1015.5
20260903023055 16 279 0.0 0.0 0.00 0.00 0.00 86 1015.5
20260903021555 16 279 0.0 0.0 0.00 0.00 0.00 85 1015.5
20260903020042 16 279 0.0 0.0 0.00 0.00 0.00 86 1015.5
20260903014540 16 279 0.0 0.0 0.00 0.00 0.00 85 1015.5
20260903013105 17 279 0.0 0.0 0.00 0.00 0.00 84 1015.4
20260903011548 17 279 0.0 0.0 0.00 0.00 0.00 83 1015.4
20260903010037 17 279 0.0 0.0 0.00 0.00 0.00 84 1015.3
20260903004528 17 279 0.0 0.0 0.00 0.00 0.00 83 1015.3
20260903003003 17 279 0.0 0.0 0.00 0.00 0.00 83 1015.2
20260903001554 17 279 0.0 0.0 0.00 0.00 0.00 82 1015.1
20260903000048 18 279 0.0 0.0 0.00 0.00 0.00 82 1015.2
20260902234559 18 279 0.0 0.0 0.00 0.00 0.00 82 1015.2
20260902233047 18 279 0.0 0.0 0.00 0.00 0.00 82 1015.1
20260902231544 18 279 0.0 0.0 0.00 0.00 0.00 80 1015.1
20260902230119 18 279 0.0 0.0 0.00 0.00 0.00 80 1015.1
20260902224608 18 279 0.0 0.0 0.00 0.00 0.00 79 1015.1
20260902223047 18 279 0.0 0.0 0.00 0.00 0.00 79 1015.1
20260902221543 18 279 0.0 0.0 0.00 0.00 0.00 80 1014.9
20260902220053 18 279 0.0 0.0 0.00 0.00 0.00 78 1014.7
20260902214614 19 279 0.0 0.0 0.00 0.00 0.00 77 1014.6
20260902213044 20 279 0.0 0.0 0.00 0.00 0.00 76 1014.4
20260902211540 20 279 0.0 0.0 0.00 0.00 0.00 75 1014.5
20260902210049 20 278 0.0 0.0 0.00 0.00 0.00 74 1014.2
20260902204540 20 279 0.0 0.0 0.00 0.00 0.00 74 1014.3
20260902203057 20 279 0.0 0.0 0.00 0.00 0.00 74 1014.3
20260902201602 20 278 0.0 0.0 0.00 0.00 0.00 75 1014.2
20260902200042 20 278 0.0 0.0 0.00 0.00 0.00 75 1014.1
20260902194546 20 278 0.0 0.0 0.00 0.00 0.00 74 1014.0
20260902193024 20 278 0.0 0.0 0.00 0.00 0.00 73 1013.8
20260902191516 21 278 0.0 0.0 0.00 0.00 0.00 71 1013.6
20260902190059 21 279 0.0 0.0 0.00 0.00 0.00 71 1013.4
20260902184551 21 279 0.0 0.0 0.00 0.00 0.00 69 1013.2
20260902183053 21 279 0.0 0.0 0.00 0.00 0.00 70 1013.0
20260902181545 21 279 0.0 0.0 0.00 0.00 0.00 70 1012.6
20260902180037 21 279 0.0 0.0 0.00 0.00 0.00 70 1012.6
20260902174556 22 278 0.0 0.0 0.00 0.00 0.00 67 1012.5
20260902173043 22 278 0.0 0.0 0.00 0.00 0.00 65 1012.3
20260902171617 23 279 0.0 0.0 0.00 0.00 0.00 65 1012.3
20260902170031 23 279 0.0 0.0 0.00 0.00 0.00 66 1012.2
20260902164608 23 279 0.0 0.0 0.00 0.00 0.00 61 1012.1
20260902163014 25 279 0.0 0.0 0.00 0.00 0.00 63 1012.1
20260902161620 25 279 0.0 0.0 0.00 0.00 0.00 60 1012.1
20260902160009 26 279 0.0 0.0 0.00 0.00 0.00 57 1012.2
20260902154559 26 327 0.0 0.0 0.00 0.00 0.00 54 1012.2
20260902153027 26 279 0.0 0.0 0.00 0.00 0.00 51 1012.2
20260902151629 27 351 0.0 0.0 0.00 0.00 0.00 52 1012.2
20260902150020 28 251 0.0 0.0 0.00 0.00 0.00 47 1012.4
20260902144619 28 232 0.0 0.0 0.00 0.00 0.00 45 1012.4
20260902143003 28 173 0.0 0.0 0.00 0.00 0.00 48 1012.6
20260902141554 28 132 0.0 0.0 0.00 0.00 0.00 47 1012.6
20260902140037 28 149 0.0 0.0 0.00 0.00 0.00 48 1012.7
20260902134531 28 277 0.0 0.0 0.00 0.00 0.00 48 1012.7
20260902133007 27 249 0.0 0.0 0.00 0.00 0.00 48 1012.9
20260902131601 28 86 0.0 0.0 0.00 0.00 0.00 49 1013.0
20260902130029 27 202 0.0 0.0 0.00 0.00 0.00 50 1013.0
20260902124628 28 227 0.0 0.0 0.00 0.00 0.00 49 1013.1
20260902123006 27 222 0.0 0.0 0.00 0.00 0.00 52 1013.4